******** Week 356 almanac for PRN-1 ******** ID: 1 Health: 0 Eccentricity: 0.001467227936 Time of Applicability(s): 233472 Orbital Inclination(rad): 0.95845876 Rate of Right Ascen(r/s): -7.760323248e-09 SQRT(A) (m 1/2): 5153.585449 Right Ascen at Week(rad): -2.645210553 Argument of Perigee(rad): 0.02148471921 Mean Anom(rad): -0.3196499879 Af0(s): 0.0002660470337 Af1(s/s): -3.637979e-12 week: 356 ******** Week 356 almanac for PRN-2 ******** ID: 2 Health: 0 Eccentricity: 0.01696252823 Time of Applicability(s): 233472 Orbital Inclination(rad): 0.963893606 Rate of Right Ascen(r/s): -7.646032773e-09 SQRT(A) (m 1/2): 5153.562012 Right Ascen at Week(rad): -2.807800158 Argument of Perigee(rad): -0.8330272186 Mean Anom(rad): 1.094548098 Af0(s): 2.411757812e-05 Af1(s/s): 7.275958e-12 week: 356 ******** Week 356 almanac for PRN-3 ******** ID: 3 Health: 0 Eccentricity: 0.006384849548 Time of Applicability(s): 233472 Orbital Inclination(rad): 0.9927036827 Rate of Right Ascen(r/s): -7.920329913e-09 SQRT(A) (m 1/2): 5153.592773 Right Ascen at Week(rad): -1.658908094 Argument of Perigee(rad): 1.205542244 Mean Anom(rad): -2.516344183 Af0(s): 0.0004582339844 Af1(s/s): -1.091394e-11 week: 356 ******** Week 356 almanac for PRN-4 ******** ID: 4 Health: 0 Eccentricity: 0.003719329834 Time of Applicability(s): 233472 Orbital Inclination(rad): 0.9705328666 Rate of Right Ascen(r/s): -8.046049436e-09 SQRT(A) (m 1/2): 5153.693848 Right Ascen at Week(rad): -0.5875970335 Argument of Perigee(rad): -2.897201352 Mean Anom(rad): 0.5074547765 Af0(s): 3.316166992e-05 Af1(s/s): 3.637979e-12 week: 356 ******** Week 356 almanac for PRN-5 ******** ID: 5 Health: 0 Eccentricity: 0.005363464355 Time of Applicability(s): 233472 Orbital Inclination(rad): 0.9792873429 Rate of Right Ascen(r/s): -8.011762293e-09 SQRT(A) (m 1/2): 5153.63916 Right Ascen at Week(rad): -1.71832663 Argument of Perigee(rad): 1.420921236 Mean Anom(rad): 1.141387692 Af0(s): -0.0001801281616 Af1(s/s): 0 week: 356 ******** Week 356 almanac for PRN-6 ******** ID: 6 Health: 0 Eccentricity: 0.003874778748 Time of Applicability(s): 233472 Orbital Inclination(rad): 0.9874066552 Rate of Right Ascen(r/s): -7.440309919e-09 SQRT(A) (m 1/2): 5153.581543 Right Ascen at Week(rad): -2.695433444 Argument of Perigee(rad): -0.6006104038 Mean Anom(rad): -1.159793589 Af0(s): -0.0004808442139 Af1(s/s): -3.637979e-12 week: 356 ******** Week 356 almanac for PRN-7 ******** ID: 7 Health: 0 Eccentricity: 0.02029180527 Time of Applicability(s): 233472 Orbital Inclination(rad): 0.9512262803 Rate of Right Ascen(r/s): -7.703178011e-09 SQRT(A) (m 1/2): 5153.590332 Right Ascen at Week(rad): 0.4208766162 Argument of Perigee(rad): -2.000078754 Mean Anom(rad): -2.052501124 Af0(s): -0.0001138048218 Af1(s/s): -3.637979e-12 week: 356 ******** Week 356 almanac for PRN-8 ******** ID: 8 Health: 0 Eccentricity: 0.01149892807 Time of Applicability(s): 233472 Orbital Inclination(rad): 0.9438679662 Rate of Right Ascen(r/s): -8.217485148e-09 SQRT(A) (m 1/2): 5153.612793 Right Ascen at Week(rad): 2.469106113 Argument of Perigee(rad): 0.5112264368 Mean Anom(rad): 0.7893761774 Af0(s): 0.0003926643188 Af1(s/s): -3.637979e-12 week: 356 ******** Week 356 almanac for PRN-9 ******** ID: 9 Health: 0 Eccentricity: 0.003322601318 Time of Applicability(s): 233472 Orbital Inclination(rad): 0.9646306358 Rate of Right Ascen(r/s): -8.160339911e-09 SQRT(A) (m 1/2): 5153.516113 Right Ascen at Week(rad): -0.6516452256 Argument of Perigee(rad): 2.064630658 Mean Anom(rad): 1.39287403 Af0(s): 0.0006089688477 Af1(s/s): 0 week: 356 ******** Week 356 almanac for PRN-10 ******** ID: 10 Health: 0 Eccentricity: 0.01096582413 Time of Applicability(s): 233472 Orbital Inclination(rad): 0.9922482821 Rate of Right Ascen(r/s): -7.920329913e-09 SQRT(A) (m 1/2): 5153.601074 Right Ascen at Week(rad): -1.661417291 Argument of Perigee(rad): -2.259640213 Mean Anom(rad): 2.786777955 Af0(s): -0.0004635097046 Af1(s/s): -3.637979e-12 week: 356 ******** Week 356 almanac for PRN-11 ******** ID: 11 Health: 0 Eccentricity: 0.002226829529 Time of Applicability(s): 233472 Orbital Inclination(rad): 0.9642471406 Rate of Right Ascen(r/s): -7.691748963e-09 SQRT(A) (m 1/2): 5153.518555 Right Ascen at Week(rad): -2.676045964 Argument of Perigee(rad): -2.287858568 Mean Anom(rad): -0.1373785407 Af0(s): -0.0003564879517 Af1(s/s): 1.455192e-11 week: 356 ******** Week 356 almanac for PRN-12 ******** ID: 12 Health: 0 Eccentricity: 0.009059906006 Time of Applicability(s): 233472 Orbital Inclination(rad): 0.9587703498 Rate of Right Ascen(r/s): -8.080336578e-09 SQRT(A) (m 1/2): 5153.729004 Right Ascen at Week(rad): 1.538656134 Argument of Perigee(rad): 1.550341503 Mean Anom(rad): -2.67976407 Af0(s): -0.0004800905395 Af1(s/s): 0 week: 356 ******** Week 356 almanac for PRN-13 ******** ID: 13 Health: 0 Eccentricity: 0.009948730469 Time of Applicability(s): 233472 Orbital Inclination(rad): 0.9762673182 Rate of Right Ascen(r/s): -7.920329913e-09 SQRT(A) (m 1/2): 5153.625488 Right Ascen at Week(rad): -0.4769328282 Argument of Perigee(rad): 0.9993042196 Mean Anom(rad): 0.526475614 Af0(s): 0.0005433991821 Af1(s/s): 0 week: 356 ******** Week 356 almanac for PRN-14 ******** ID: 14 Health: 0 Eccentricity: 0.006580352783 Time of Applicability(s): 233472 Orbital Inclination(rad): 0.9421182693 Rate of Right Ascen(r/s): -8.263201338e-09 SQRT(A) (m 1/2): 5153.585449 Right Ascen at Week(rad): 1.484427142 Argument of Perigee(rad): -2.759167424 Mean Anom(rad): -2.8659611 Af0(s): 0.000578821875 Af1(s/s): 3.637979e-12 week: 356 ******** Week 356 almanac for PRN-15 ******** ID: 15 Health: 0 Eccentricity: 0.01660966873 Time of Applicability(s): 233472 Orbital Inclination(rad): 0.9423939065 Rate of Right Ascen(r/s): -8.434637051e-09 SQRT(A) (m 1/2): 5153.625 Right Ascen at Week(rad): -0.7950248669 Argument of Perigee(rad): 1.4962346 Mean Anom(rad): -0.2132971075 Af0(s): 0.0003022234009 Af1(s/s): 3.637979e-12 week: 356 ******** Week 356 almanac for PRN-16 ******** ID: 16 Health: 0 Eccentricity: 0.01505804062 Time of Applicability(s): 233472 Orbital Inclination(rad): 0.9579074856 Rate of Right Ascen(r/s): -8.091765626e-09 SQRT(A) (m 1/2): 5153.573242 Right Ascen at Week(rad): 1.55568759 Argument of Perigee(rad): 0.9252821565 Mean Anom(rad): 1.800041068 Af0(s): 0.0001590252808 Af1(s/s): 7.275958e-12 week: 356 ******** Week 356 almanac for PRN-17 ******** ID: 17 Health: 0 Eccentricity: 0.01273918152 Time of Applicability(s): 233472 Orbital Inclination(rad): 0.9596451983 Rate of Right Ascen(r/s): -8.046049436e-09 SQRT(A) (m 1/2): 5153.518066 Right Ascen at Week(rad): 2.573364001 Argument of Perigee(rad): -1.129136818 Mean Anom(rad): 0.6945993092 Af0(s): -4.14520874e-05 Af1(s/s): -1.091394e-11 week: 356 ******** Week 356 almanac for PRN-18 ******** ID: 18 Health: 0 Eccentricity: 0.005704879761 Time of Applicability(s): 233472 Orbital Inclination(rad): 0.9723604609 Rate of Right Ascen(r/s): -7.600316584e-09 SQRT(A) (m 1/2): 5153.602051 Right Ascen at Week(rad): -2.700081076 Argument of Perigee(rad): -2.859249934 Mean Anom(rad): -1.289265537 Af0(s): -0.000342921814 Af1(s/s): 1.091394e-11 week: 356 ******** Week 356 almanac for PRN-19 ******** ID: 19 Health: 0 Eccentricity: 0.01103210449 Time of Applicability(s): 233472 Orbital Inclination(rad): 0.9588662236 Rate of Right Ascen(r/s): -8.000333246e-09 SQRT(A) (m 1/2): 5153.655273 Right Ascen at Week(rad): 2.61726409 Argument of Perigee(rad): 2.921254815 Mean Anom(rad): 2.539930635 Af0(s): 0.0005441528564 Af1(s/s): 0 week: 356 ******** Week 356 almanac for PRN-21 ******** ID: 21 Health: 0 Eccentricity: 0.0006427764893 Time of Applicability(s): 233472 Orbital Inclination(rad): 0.9621259328 Rate of Right Ascen(r/s): -8.228914196e-09 SQRT(A) (m 1/2): 5153.694824 Right Ascen at Week(rad): -1.651837027 Argument of Perigee(rad): -0.437304367 Mean Anom(rad): -2.876384754 Af0(s): 0.0003105138184 Af1(s/s): 7.275958e-12 week: 356 ******** Week 356 almanac for PRN-22 ******** ID: 22 Health: 0 Eccentricity: 0.01217126846 Time of Applicability(s): 233472 Orbital Inclination(rad): 0.9573442271 Rate of Right Ascen(r/s): -8.114623721e-09 SQRT(A) (m 1/2): 5153.566406 Right Ascen at Week(rad): 1.559033436 Argument of Perigee(rad): -0.9954932361 Mean Anom(rad): 1.345551697 Af0(s): -4.069841309e-05 Af1(s/s): 3.637979e-12 week: 356 ******** Week 356 almanac for PRN-23 ******** ID: 23 Health: 0 Eccentricity: 0.006006240845 Time of Applicability(s): 233472 Orbital Inclination(rad): 0.9872568524 Rate of Right Ascen(r/s): -7.966046103e-09 SQRT(A) (m 1/2): 5153.651367 Right Ascen at Week(rad): -1.693392327 Argument of Perigee(rad): -2.741035292 Mean Anom(rad): -2.403611201 Af0(s): 0.0004800905395 Af1(s/s): 3.637979e-12 week: 356 ******** Week 356 almanac for PRN-24 ******** ID: 24 Health: 0 Eccentricity: 0.01785612106 Time of Applicability(s): 233472 Orbital Inclination(rad): 0.9352692848 Rate of Right Ascen(r/s): -7.931758961e-09 SQRT(A) (m 1/2): 5153.605957 Right Ascen at Week(rad): 0.3129039928 Argument of Perigee(rad): 1.131453893 Mean Anom(rad): -1.070956777 Af0(s): -0.0001077754272 Af1(s/s): 1.455192e-11 week: 356 ******** Week 356 almanac for PRN-25 ******** ID: 25 Health: 0 Eccentricity: 0.01295137405 Time of Applicability(s): 233472 Orbital Inclination(rad): 0.9471276753 Rate of Right Ascen(r/s): -8.194627053e-09 SQRT(A) (m 1/2): 5153.673828 Right Ascen at Week(rad): 1.445091171 Argument of Perigee(rad): 1.15331649 Mean Anom(rad): -2.831276131 Af0(s): 0.0003527195801 Af1(s/s): -3.637979e-12 week: 356 ******** Week 356 almanac for PRN-26 ******** ID: 26 Health: 0 Eccentricity: 0.0109910965 Time of Applicability(s): 233472 Orbital Inclination(rad): 0.9279349392 Rate of Right Ascen(r/s): -8.343204671e-09 SQRT(A) (m 1/2): 5153.638672 Right Ascen at Week(rad): 1.371031657 Argument of Perigee(rad): 0.7052873653 Mean Anom(rad): 2.626502055 Af0(s): -0.0002539882446 Af1(s/s): -7.275958e-12 week: 356 ******** Week 356 almanac for PRN-27 ******** ID: 27 Health: 0 Eccentricity: 0.01426744461 Time of Applicability(s): 233472 Orbital Inclination(rad): 0.9529879613 Rate of Right Ascen(r/s): -8.114623721e-09 SQRT(A) (m 1/2): 5153.60498 Right Ascen at Week(rad): 2.500892772 Argument of Perigee(rad): 0.8722242477 Mean Anom(rad): 0.883937704 Af0(s): -2.562492676e-05 Af1(s/s): -7.275958e-12 week: 356 ******** Week 356 almanac for PRN-28 ******** ID: 28 Health: 0 Eccentricity: 0.0004053115845 Time of Applicability(s): 233472 Orbital Inclination(rad): 0.9621978382 Rate of Right Ascen(r/s): -7.657461821e-09 SQRT(A) (m 1/2): 5153.736816 Right Ascen at Week(rad): 0.3948401385 Argument of Perigee(rad): 0.2287129403 Mean Anom(rad): -1.924376278 Af0(s): -0.0004755684936 Af1(s/s): 7.275958e-12 week: 356 ******** Week 356 almanac for PRN-29 ******** ID: 29 Health: 0 Eccentricity: 0.00329875946 Time of Applicability(s): 233472 Orbital Inclination(rad): 0.9623056962 Rate of Right Ascen(r/s): -7.988904198e-09 SQRT(A) (m 1/2): 5153.717773 Right Ascen at Week(rad): 2.590001851 Argument of Perigee(rad): 2.743420902 Mean Anom(rad): 0.758453132 Af0(s): -0.0003014697266 Af1(s/s): 7.275958e-12 week: 356 ******** Week 356 almanac for PRN-30 ******** ID: 30 Health: 0 Eccentricity: 0.007946014404 Time of Applicability(s): 233472 Orbital Inclination(rad): 0.9364856836 Rate of Right Ascen(r/s): -7.874613723e-09 SQRT(A) (m 1/2): 5153.727539 Right Ascen at Week(rad): 0.4122715682 Argument of Perigee(rad): -2.336989771 Mean Anom(rad): -2.183495069 Af0(s): 8.667254639e-05 Af1(s/s): 1.091394e-11 week: 356 ******** Week 356 almanac for PRN-31 ******** ID: 31 Health: 0 Eccentricity: 0.01084470749 Time of Applicability(s): 233472 Orbital Inclination(rad): 0.9549893269 Rate of Right Ascen(r/s): -7.726036106e-09 SQRT(A) (m 1/2): 5153.726074 Right Ascen at Week(rad): 0.4449750199 Argument of Perigee(rad): 0.9344624472 Mean Anom(rad): -3.134017127 Af0(s): -0.000133400354 Af1(s/s): 3.637979e-12 week: 356 ******** Week 356 almanac for PRN-32 ******** ID: 32 Health: 0 Eccentricity: 0.009254932404 Time of Applicability(s): 233472 Orbital Inclination(rad): 0.9677105816 Rate of Right Ascen(r/s): -8.114623721e-09 SQRT(A) (m 1/2): 5153.669922 Right Ascen at Week(rad): -0.6347343607 Argument of Perigee(rad): -2.014484916 Mean Anom(rad): 1.48065698 Af0(s): -8.667254639e-05 Af1(s/s): 1.818989e-11 week: 356